GW5798 Weather Reports


Display with metric or nautical units.
time (UTC)temp
F
wind
direction
speed
MPH
gust
MPH
rain 1hr
in
rain 24hr
in
rain mn
in
humidity
%
barometer
mb
20260508085039 69 51 0.0 2.0 0.00 0.00 0.00 79 1012.6
20260508084110 69 62 1.0 3.0 0.00 0.00 0.00 79 1013.0
20260508083100 69 74 1.0 3.0 0.00 0.00 0.00 79 1013.2
20260508082050 69 335 0.0 1.0 0.00 0.00 0.00 79 1013.3
20260508081040 69 357 0.0 2.0 0.00 0.00 0.00 79 1013.1
20260508080030 69 334 0.0 3.0 0.00 0.00 0.00 78 1013.2
20260508075020 69 20 0.0 2.0 0.00 0.00 0.00 78 1013.2
20260508074111 70 298 0.0 2.0 0.00 0.00 0.00 77 1013.6
20260508073101 70 297 0.0 2.0 0.00 0.00 0.00 77 1013.5
20260508072051 70 54 0.0 2.0 0.00 0.00 0.00 76 1013.7
20260508071041 71 275 0.0 1.0 0.00 0.00 0.00 76 1013.7
20260508070031 71 6 0.0 1.0 0.00 0.00 0.00 75 1013.6
20260508065020 71 0.0 0.0 0.00 0.00 0.00 75 1014.0
20260508064132 71 45 0.0 2.0 0.00 0.00 0.00 75 1013.9
20260508063102 71 45 0.0 2.0 0.00 0.00 0.00 75 1013.8
20260508062112 71 37 0.0 2.0 0.00 0.00 0.00 75 1013.4
20260508061042 71 68 1.0 2.0 0.00 0.00 0.00 75 1013.4
20260508060032 70 347 0.0 1.0 0.00 0.00 0.00 75 1013.5
20260508055021 70 50 0.0 1.0 0.00 0.00 0.00 74 1013.6
20260508054112 70 356 0.0 2.0 0.00 0.00 0.00 74 1013.7
20260508053103 71 52 0.0 2.0 0.00 0.00 0.00 73 1013.5
20260508052112 71 0.0 0.0 0.00 0.00 0.00 73 1013.8
20260508051042 71 334 0.0 2.0 0.00 0.00 0.00 72 1013.6
20260508050113 71 5 1.0 2.0 0.00 0.00 0.00 71 1013.7
20260508045023 71 126 0.0 2.0 0.00 0.00 0.00 71 1013.8
20260508044113 71 0.0 1.0 0.00 0.00 0.00 71 1013.8
20260508043103 72 66 0.0 2.0 0.00 0.00 0.00 70 1013.8
20260508042113 72 121 0.0 3.0 0.00 0.00 0.00 69 1014.1
20260508041043 72 67 0.0 3.0 0.00 0.00 0.00 69 1014.0
20260508040033 72 18 0.0 1.0 0.00 0.00 0.00 68 1014.0
20260508035023 72 65 1.0 4.0 0.00 0.00 0.00 68 1013.5
20260508034114 72 256 2.0 4.0 0.00 0.00 0.00 69 1012.8
20260508033104 72 2 1.0 3.0 0.00 0.00 0.00 70 1013.3
20260508032054 73 272 1.0 3.0 0.00 0.00 0.00 69 1013.9
20260508031044 73 71 1.0 6.0 0.00 0.00 0.00 71 1014.1
20260508030034 73 0.0 0.0 0.00 0.00 0.00 72 1014.2
20260508025024 73 32 0.0 2.0 0.00 0.00 0.00 71 1014.3
20260508024115 73 126 0.0 1.0 0.00 0.00 0.00 71 1014.4
20260508023205 73 284 0.0 1.0 0.00 0.00 0.00 71 1014.1
20260508021045 73 344 0.0 1.0 0.00 0.00 0.00 71 1014.1
20260508020035 74 0.0 0.0 0.00 0.00 0.00 70 1014.0
20260508015025 74 30 0.0 2.0 0.00 0.00 0.00 69 1013.9
20260508014115 74 78 0.0 1.0 0.00 0.00 0.00 68 1013.9
20260508013105 74 0.0 1.0 0.00 0.00 0.00 67 1013.9
20260508012056 75 90 0.0 1.0 0.00 0.00 0.00 66 1014.0
20260508011045 75 34 0.0 1.0 0.00 0.00 0.00 64 1014.0
20260508010035 75 64 1.0 2.0 0.00 0.00 0.00 63 1013.9
20260508005045 75 94 0.0 6.0 0.00 0.00 0.00 64 1014.0
20260508004116 76 23 0.0 1.0 0.00 0.00 0.00 65 1014.0
20260508003106 76 104 1.0 4.0 0.00 0.00 0.00 65 1013.8
20260508002116 76 85 1.0 3.0 0.00 0.00 0.00 65 1013.8
20260508001046 76 28 1.0 3.0 0.00 0.00 0.00 66 1014.0
20260508000036 76 46 1.0 3.0 0.00 0.00 0.00 67 1014.1
20260507235046 76 16 1.0 3.0 0.00 0.00 0.00 68 1014.1
20260507234137 77 284 1.0 3.0 0.00 0.00 0.00 68 1014.2
20260507233107 77 356 1.0 2.0 0.00 0.00 0.00 68 1014.1
20260507232058 77 284 1.0 2.0 0.00 0.00 0.00 69 1014.0
20260507231047 78 247 1.0 3.0 0.00 0.00 0.00 68 1013.8
20260507230037 78 317 1.0 3.0 0.00 0.00 0.00 67 1013.6
20260507225028 78 2 0.0 2.0 0.00 0.00 0.00 67 1013.7
20260507224017 78 79 1.0 4.0 0.00 0.00 0.00 67 1013.5
20260507223108 78 21 1.0 4.0 0.00 0.00 0.00 67 1013.2
20260507222058 77 279 1.0 3.0 0.00 0.00 0.00 68 1013.3
20260507221048 77 320 1.0 4.0 0.00 0.00 0.00 68 1013.3
20260507220038 77 149 1.0 3.0 0.00 0.00 0.00 68 1013.6
20260507215048 78 123 1.0 3.0 0.00 0.00 0.00 67 1013.8
20260507214017 78 102 2.0 6.0 0.00 0.00 0.00 67 1014.0
20260507213108 79 102 1.0 3.0 0.00 0.00 0.00 65 1014.0
20260507212119 78 288 1.0 3.0 0.00 0.00 0.00 67 1014.1
20260507211048 79 19 1.0 6.0 0.00 0.00 0.00 66 1014.1
20260507210038 79 244 1.0 4.0 0.00 0.00 0.00 67 1014.3
20260507205029 78 135 1.0 3.0 0.00 0.00 0.00 67 1014.2
20260507204018 78 151 1.0 8.0 0.00 0.00 0.00 67 1014.4
20260507203129 78 50 1.0 6.0 0.00 0.00 0.00 67 1014.4
20260507202059 78 133 0.0 3.0 0.00 0.00 0.00 67 1014.4
20260507201049 77 141 1.0 4.0 0.00 0.00 0.00 67 1014.6
20260507200039 77 74 1.0 4.0 0.00 0.00 0.00 69 1014.7
20260507195049 76 113 1.0 3.0 0.00 0.00 0.00 69 1014.7
20260507194019 75 28 2.0 6.0 0.00 0.00 0.00 69 1014.9
20260507193110 76 37 1.0 8.0 0.00 0.00 0.00 68 1015.0
20260507192100 75 349 1.0 7.0 0.00 0.00 0.00 70 1015.3
20260507191050 74 330 2.0 4.0 0.00 0.00 0.00 71 1015.5
20260507190040 73 244 2.0 4.0 0.00 0.00 0.00 72 1015.7
20260507185030 73 318 1.0 3.0 0.00 0.00 0.00 72 1015.9
20260507184019 73 273 2.0 4.0 0.00 0.00 0.00 71 1016.0
20260507183110 72 252 2.0 7.0 0.00 0.00 0.00 72 1016.0
20260507182140 72 249 1.0 4.0 0.00 0.00 0.00 74 1016.2
20260507181051 72 49 1.0 3.0 0.00 0.00 0.00 73 1016.1
20260507180040 71 182 1.0 6.0 0.00 0.00 0.00 73 1016.2
20260507175030 71 240 2.0 8.0 0.00 0.00 0.00 73 1016.3
20260507174021 71 1 1.0 4.0 0.00 0.00 0.00 74 1016.6
20260507173112 70 235 1.0 6.0 0.00 0.00 0.00 74 1016.5
20260507172101 70 285 1.0 3.0 0.00 0.00 0.00 76 1016.8
20260507171111 70 311 1.0 4.0 0.00 0.00 0.00 76 1017.0
20260507165031 69 212 1.0 9.0 0.00 0.00 0.00 75 1016.9
20260507164021 68 22 2.0 4.0 0.00 0.00 0.00 76 1016.9
20260507163152 69 269 2.0 4.0 0.00 0.00 0.00 76 1016.8
20260507162102 69 251 1.0 4.0 0.00 0.00 0.00 77 1016.6
20260507161052 69 1 1.0 4.0 0.00 0.00 0.00 77 1016.5
20260507155052 66 4 1.0 4.0 0.00 0.00 0.00 81 1016.4
20260507154022 66 307 1.0 3.0 0.00 0.00 0.00 82 1016.4
20260507153113 65 336 1.0 3.0 0.00 0.00 0.00 83 1016.4
20260507152103 65 250 1.0 6.0 0.00 0.00 0.00 83 1016.6
20260507151053 65 113 1.0 4.0 0.00 0.00 0.00 83 1016.7
20260507150043 65 300 1.0 3.0 0.00 0.00 0.00 83 1016.6
20260507145033 64 309 2.0 4.0 0.00 0.00 0.00 84 1016.6
20260507144043 64 75 2.0 7.0 0.00 0.00 0.00 84 1016.8
20260507143113 64 269 1.0 3.0 0.00 0.00 0.00 84 1016.5
20260507142103 64 16 2.0 7.0 0.00 0.00 0.00 85 1016.2
20260507141053 64 57 2.0 7.0 0.00 0.00 0.00 85 1015.9
20260507140043 64 295 2.0 6.0 0.00 0.00 0.00 86 1015.5
20260507135033 64 262 2.0 6.0 0.00 0.00 0.00 86 1015.6
20260507134023 65 298 1.0 4.0 0.00 0.00 0.00 86 1015.9
20260507133114 64 357 1.0 4.0 0.00 0.00 0.00 86 1016.2
20260507132104 64 5 2.0 4.0 0.00 0.00 0.00 86 1016.4
20260507131054 65 352 1.0 3.0 0.00 0.00 0.00 86 1016.4
20260507130104 65 261 1.0 4.0 0.00 0.00 0.00 86 1016.4
20260507125034 65 360 2.0 4.0 0.00 0.00 0.00 87 1016.2
20260507124024 65 297 1.0 3.0 0.00 0.00 0.00 87 1016.3
20260507123115 66 318 2.0 6.0 0.00 0.00 0.00 88 1015.8
20260507122105 66 296 1.0 3.0 0.00 0.00 0.00 88 1015.5
20260507121055 65 0 1.0 3.0 0.00 0.00 0.00 87 1015.5
20260507120105 66 22 1.0 3.0 0.00 0.00 0.00 87 1015.2
20260507115035 66 312 1.0 3.0 0.00 0.00 0.00 87 1014.7
20260507114025 66 275 0.0 2.0 0.00 0.00 0.00 86 1014.7
20260507113116 66 285 1.0 3.0 0.00 0.00 0.00 86 1014.8
20260507112106 66 296 1.0 3.0 0.00 0.00 0.00 86 1014.4
20260507111056 66 36 1.0 3.0 0.00 0.00 0.00 85 1014.1
20260507110046 67 276 0.0 2.0 0.00 0.00 0.00 85 1014.4
20260507105056 66 53 0.0 2.0 0.00 0.00 0.00 85 1014.3
20260507104026 66 224 1.0 3.0 0.00 0.00 0.00 85 1014.1
20260507103016 66 53 0.0 3.0 0.00 0.00 0.00 85 1014.1
20260507102107 66 321 1.0 3.0 0.00 0.00 0.00 85 1013.9
20260507101056 66 274 1.0 2.0 0.00 0.00 0.00 85 1014.1
20260507100047 66 203 0.0 2.0 0.00 0.00 0.00 85 1013.7
20260507095037 66 110 0.0 3.0 0.00 0.00 0.00 85 1013.7
20260507094027 66 267 0.0 2.0 0.00 0.00 0.00 85 1013.7
20260507093016 66 239 0.0 2.0 0.00 0.00 0.00 85 1013.5
20260507092107 66 160 1.0 4.0 0.00 0.00 0.00 85 1013.2
20260507091057 66 63 1.0 3.0 0.00 0.00 0.00 85 1013.3
20260507090047 66 12 0.0 3.0 0.00 0.00 0.00 84 1013.3